Regional Weather Roundup
Issued by NWS

Home | Current Version | Previous Version | Graphics & Text | Print | Product List | Glossary On
Versions: 1 2 3 4 5 6 7 8 9 10 11 12 13 14 15 16 17 18 19 20 21 22 23 24 25 26 27 28 29 30 31 32 33 34 35 36 37 38 39 40 41 42 43 44 45 46 47 48 49 50
000
ASUS43 KLMK 291910
RWRKY
KENTUCKY REGIONAL WEATHER ROUNDUP
NATIONAL WEATHER SERVICE LOUISVILLE KY
300 PM EDT WED JUL 29 2015

NOTE "FAIR" INDICATES FEW OR NO CLOUDS BELOW 12,000 FEET
WITH NO SIGNIFICANT WEATHER AND/OR OBSTRUCTIONS TO VISIBILITY.

KYZ001>023-026-027-061>063-070>075-292000-
WESTERN AND SOUTH CENTRAL KENTUCKY

CITY           SKY/WX    TMP DP  RH WIND       PRES   REMARKS
PADUCAH        MOSUNNY   95  76  53 W8        29.98S HX 108
HENDERSON      PTSUNNY   93  81  66 W5        29.96F HX 113
OWENSBORO      MOSUNNY   94  80  63 S6        29.98F HX 113
HOPKINSVILLE   PTSUNNY   85  78  79 SW6       30.01S HX  97
BOWLING GREEN  MOSUNNY   91  78  65 SW5       30.00F HX 106
GLASGOW        PTSUNNY  N/A N/A N/A SW3       30.01F
$$

KYZ024-025-028>034-038-045-046-053-292000-
NORTH CENTRAL KENTUCKY

CITY           SKY/WX    TMP DP  RH WIND       PRES   REMARKS
LOUISVILLE/SDF PTSUNNY   93  76  57 VRB6      29.96F HX 105
LOUISVILLE/LOU MOSUNNY   92  74  55 VRB3      29.97F HX 101
FORT KNOX      MOSUNNY   91  77  64 SW8       29.97F HX 104
$$

KYZ035>037-039>044-047>052-055>060-089>105-292000-
NORTHEAST KENTUCKY

CITY           SKY/WX    TMP DP  RH WIND       PRES   REMARKS
LEXINGTON      PTSUNNY   87  76  69 SW15      29.99F HX  97
COVINGTON      PTSUNNY   89  74  60 S3        29.96F THUNDER HX  98
FRANKFORT      RAIN      79  74  84 W5        29.99S
$$

KYZ054-064>069-076>088-106>120-292000-
SOUTHEAST KENTUCKY

CITY           SKY/WX    TMP DP  RH WIND       PRES   REMARKS
JACKSON        SUNNY     88  69  53 VRB3      30.04F HX  92
LONDON         MOSUNNY   85  71  63 CALM      30.04F HX  90
SOMERSET       MOSUNNY   86  73  66 CALM      30.05S HX  93
MIDDLESBORO    MOSUNNY   88  71  56 CALM      30.03F HX  94
MONTICELLO     PTCLDY    91  76  61 CALM      30.05F HX 102
$$




USA.gov is the U.S. government's official web portal to all federal, state and local government web resources and services.